Weather reports worldwide

Advertisment
Dax, France (7603): temperature & dewpoint: 19.08.2019 08:00:00 - 25.08.2019 08:00:00 (CEST)Dax, France (7603): temperature 5cm: 19.08.2019 08:00:00 - 25.08.2019 08:00:00 (CEST)Dax, France (7603): temperature -20cm & temperature -100cm: 19.08.2019 08:00:00 - 25.08.2019 08:00:00 (CEST)Dax, France (7603): wind speed & gusts: 19.08.2019 08:00:00 - 25.08.2019 08:00:00 (CEST)Dax, France (7603): wind direction: 19.08.2019 08:00:00 - 25.08.2019 08:00:00 (CEST)Dax, France (7603): reduced air pressure: 19.08.2019 08:00:00 - 25.08.2019 08:00:00 (CEST)Dax, France (7603): visibility: 19.08.2019 08:00:00 - 25.08.2019 08:00:00 (CEST)Dax, France (7603): sunshine duration: 19.08.2019 08:00:00 - 25.08.2019 08:00:00 (CEST)Dax, France (7603): precipitation: 19.08.2019 08:00:00 - 25.08.2019 08:00:00 (CEST)
Date & Time tt [°C] td [°C] tt 5cm [°C] tt -20cm [°C] tt -100cm [°C] ff [km/h] ff [kn] fx [km/h] fx [kn] dd ppp [hPa] vv [km] sd [min] rr [mm]
25.08.2019 08:00:00 - - - - - - - - - - - - - -
25.08.2019 07:00:00 20,3 18,8 20,1 23,4 21,7 5 3 8 5 ESE 1018,2 5 0 0,0
25.08.2019 06:00:00 20,6 18,5 20,3 23,4 21,7 3 2 6 4 SE 1018,5 7 0 0,0
25.08.2019 05:00:00 20,9 18,1 20,6 23,4 21,7 0 0 9 5 N 1018,5 7 0 0,0
25.08.2019 04:00:00 20,9 18,7 20,6 23,5 21,7 4 2 6 3 S 1018,6 8 0 0,0
25.08.2019 03:00:00 21,1 18,3 20,9 23,5 21,7 0 0 7 4 N 1018,5 8 0 0,0
25.08.2019 02:00:00 21,1 18,3 20,8 23,6 21,7 3 1 8 5 SW 1018,7 8 0 0,0
25.08.2019 01:00:00 20,9 18,3 20,7 23,6 21,7 5 3 10 6 WSW 1018,9 9 0 0,0
25.08.2019 00:00:00 21,0 18,4 20,6 23,7 21,7 6 3 15 8 W 1018,9 10 0 0,0
24.08.2019 23:00:00 21,3 19,0 20,9 23,7 21,7 8 4 18 10 W 1018,5 10 0 0,0
24.08.2019 22:00:00 21,4 19,1 20,9 23,7 21,7 9 5 24 13 W 1018,3 12 0 0,0
24.08.2019 21:00:00 22,3 18,9 22,0 23,6 21,7 13 7 29 16 W 1017,8 12 4 0,0
24.08.2019 20:00:00 23,4 19,3 23,6 23,5 21,7 13 7 30 16 W 1017,5 15 31 0,0
24.08.2019 19:00:00 25,8 19,9 27,6 23,4 21,7 16 9 29 16 W 1017,2 18 60 0,0
24.08.2019 18:00:00 28,4 18,8 30,8 23,2 21,7 18 10 29 16 WSW 1016,8 18 60 0,0
24.08.2019 17:00:00 30,6 20,2 33,8 23,0 21,7 17 9 26 14 WSW 1016,4 18 60 0,0
24.08.2019 16:00:00 32,4 18,2 35,4 22,7 21,7 16 8 24 13 WSW 1016,4 20 60 0,0
24.08.2019 15:00:00 33,0 16,8 36,7 22,5 21,7 13 7 21 11 WSW 1016,5 19 60 0,0
24.08.2019 14:00:00 32,3 17,4 35,6 22,4 21,7 6 4 13 7 SSW 1016,6 23 60 0,0
24.08.2019 13:00:00 30,8 17,5 33,6 22,3 21,7 3 2 11 6 WSW 1017,0 15 60 0,0
24.08.2019 12:00:00 28,6 16,5 30,8 22,2 21,7 4 2 8 4 SE 1017,0 28 60 0,0
24.08.2019 11:00:00 25,7 17,1 25,2 22,2 21,7 3 1 8 5 ESE 1017,1 15 60 0,0
24.08.2019 10:00:00 21,4 16,8 20,0 22,3 21,7 4 2 7 4 SE 1016,8 15 60 0,0
24.08.2019 09:00:00 18,2 16,2 15,2 22,4 21,7 4 2 6 3 E 1016,7 16 60 0,0
24.08.2019 08:00:00 15,5 14,7 13,8 22,5 21,7 4 2 6 4 E 1016,4 10 20 0,0
24.08.2019 07:00:00 15,3 14,5 13,7 22,6 21,7 0 0 6 4 N 1016,3 10 0 0,0
24.08.2019 06:00:00 15,6 15,0 13,6 22,7 21,7 4 2 7 4 ESE 1016,3 12 0 0,2
24.08.2019 05:00:00 16,1 15,1 14,5 22,9 21,7 4 2 9 5 E 1016,4 14 0 0,0
24.08.2019 04:00:00 16,7 15,6 14,9 22,9 21,7 3 1 7 4 ESE 1016,4 16 0 0,0
24.08.2019 03:00:00 17,2 15,9 16,0 23,0 21,7 6 3 9 5 E 1016,5 12 0 0,0
24.08.2019 02:00:00 17,8 16,8 16,2 23,1 21,7 9 5 15 8 ESE 1016,7 10 0 0,0
24.08.2019 01:00:00 18,5 17,3 16,9 23,2 21,7 0 0 8 4 N 1016,8 15 0 0,0
24.08.2019 00:00:00 19,6 17,0 17,8 23,3 21,8 2 1 22 12 SSE 1016,8 20 0 0,0
23.08.2019 23:00:00 21,3 18,1 19,6 23,3 21,7 3 2 10 6 E 1016,7 26 0 0,0
23.08.2019 22:00:00 25,5 17,7 22,2 23,3 21,7 6 3 18 10 E 1016,6 28 0 0,0
23.08.2019 21:00:00 26,4 17,7 24,2 23,2 21,7 5 3 8 4 E 1016,5 35 34 0,0
23.08.2019 20:00:00 28,8 17,3 28,5 23,2 21,8 5 3 16 9 ESE 1016,5 39 60 0,0
23.08.2019 19:00:00 30,1 17,5 32,3 23,0 21,7 11 6 29 15 ESE 1016,6 24 60 0,0
23.08.2019 18:00:00 30,8 16,0 30,7 22,8 21,7 16 8 22 12 ESE 1016,9 22 38 0,0
23.08.2019 17:00:00 32,1 16,0 33,6 22,6 21,7 15 8 29 16 E 1017,0 25 57 0,0
23.08.2019 16:00:00 31,6 15,5 32,8 22,4 21,8 16 9 26 14 E 1017,3 28 55 0,0
23.08.2019 15:00:00 30,7 14,3 32,7 22,2 21,8 16 9 26 14 E 1018,1 25 60 0,0
23.08.2019 14:00:00 29,3 15,8 31,0 22,0 21,7 12 7 22 12 ESE 1018,7 23 60 0,0
23.08.2019 13:00:00 27,3 16,0 28,6 21,9 21,8 15 8 28 15 ESE 1019,0 25 60 0,0
23.08.2019 12:00:00 25,4 15,7 25,7 21,9 21,7 14 7 21 11 ESE 1019,4 22 60 0,0
23.08.2019 11:00:00 21,8 15,6 22,5 21,9 21,7 10 5 14 8 E 1020,0 20 60 0,0
23.08.2019 10:00:00 18,5 15,4 18,6 22,0 21,8 5 3 11 6 ESE 1020,3 16 60 0,0
23.08.2019 09:00:00 15,4 13,6 12,7 22,2 21,8 4 2 9 5 E 1020,4 16 60 0,0
23.08.2019 08:00:00 13,0 12,4 10,9 22,3 21,8 5 3 8 4 ENE 1020,4 9 21 0,0
23.08.2019 07:00:00 12,6 12,0 11,0 22,4 21,8 3 2 7 4 ESE 1020,2 9 0 0,2
23.08.2019 06:00:00 12,7 12,1 11,4 22,5 21,8 5 3 7 4 ESE 1020,0 10 0 0,0
23.08.2019 05:00:00 13,2 12,4 11,9 22,7 21,8 5 3 7 4 ESE 1020,3 11 0 0,0
23.08.2019 04:00:00 13,8 12,9 11,9 22,8 21,8 4 2 6 4 ESE 1020,7 16 0 0,0
23.08.2019 03:00:00 14,1 13,1 12,6 22,9 21,8 4 2 5 3 SSE 1020,8 20 0 0,0
23.08.2019 02:00:00 14,6 13,3 13,1 23,0 21,8 3 2 5 3 SE 1021,0 20 0 0,0
23.08.2019 01:00:00 16,0 13,8 14,5 23,1 21,8 0 0 5 3 N 1021,4 21 0 0,0
23.08.2019 00:00:00 17,6 14,1 15,7 23,2 21,8 5 3 8 4 SSW 1021,5 22 0 0,0
22.08.2019 23:00:00 18,4 14,3 16,6 23,2 21,8 4 2 7 4 SSW 1021,7 27 0 0,0
22.08.2019 22:00:00 20,5 13,5 18,7 23,2 21,8 3 2 10 5 W 1021,7 28 0 0,0
22.08.2019 21:00:00 22,8 13,3 21,7 23,2 21,8 5 3 14 8 W 1021,0 30 34 0,0
22.08.2019 20:00:00 25,7 13,2 25,7 23,1 21,8 6 3 19 10 W 1020,8 22 60 0,0
22.08.2019 19:00:00 26,9 13,6 29,4 22,9 21,8 9 5 19 10 W 1020,8 24 60 0,0
22.08.2019 18:00:00 27,8 13,0 31,3 22,7 21,8 8 4 19 10 W 1021,2 22 60 0,0
22.08.2019 17:00:00 28,5 13,6 32,3 22,5 21,8 9 5 21 11 W 1021,5 20 60 0,0
22.08.2019 16:00:00 28,8 10,5 31,5 22,3 21,8 5 3 17 9 S 1021,9 24 60 0,0
22.08.2019 15:00:00 27,8 10,5 32,0 22,0 21,8 7 4 16 9 N 1022,4 19 60 0,0
22.08.2019 14:00:00 27,3 10,5 30,4 21,9 21,8 7 4 17 9 NNE 1022,7 24 60 0,0
22.08.2019 13:00:00 26,1 11,4 30,5 21,8 21,8 5 3 13 7 ENE 1023,1 27 60 0,0
22.08.2019 12:00:00 24,1 16,1 26,1 21,8 21,8 4 2 10 5 WNW 1023,5 16 60 0,0
22.08.2019 11:00:00 21,3 17,7 23,3 21,8 21,8 5 3 12 6 WSW 1023,4 14 60 0,0
22.08.2019 10:00:00 18,4 15,5 18,1 21,9 21,8 0 0 6 3 N 1023,5 14 44 0,0
22.08.2019 09:00:00 14,7 14,4 12,0 22,0 21,8 0 0 16 8 N 1023,2 5 60 0,0
22.08.2019 08:00:00 11,7 11,4 9,6 22,2 21,8 0 0 4 2 N 1023,0 0,9 22 0,0
22.08.2019 07:00:00 11,3 10,7 9,5 22,3 21,8 0 0 4 2 N 1022,7 8 0 0,0
22.08.2019 06:00:00 11,7 10,9 9,8 22,4 21,8 2 1 6 3 NW 1022,1 - 0 0,0
22.08.2019 05:00:00 12,3 11,5 10,5 22,6 21,8 2 1 4 2 SSE 1021,9 - 0 0,0
22.08.2019 04:00:00 12,7 11,8 10,8 22,7 21,8 2 1 4 2 SSE 1022,0 - 0 0,0
22.08.2019 03:00:00 13,5 12,7 11,7 22,9 21,9 0 0 4 2 N 1022,0 - 0 0,0
22.08.2019 02:00:00 14,0 12,9 12,4 23,0 21,9 0 0 5 3 N 1022,5 - 0 0,0
22.08.2019 01:00:00 15,4 14,1 14,0 23,1 21,9 0 0 10 5 N 1022,7 - 0 0,0
22.08.2019 00:00:00 16,4 14,4 14,7 23,2 21,8 0 0 6 3 N 1022,6 - 0 0,0
21.08.2019 23:00:00 17,8 14,9 15,6 23,2 21,9 3 1 8 4 S 1022,4 - 0 0,0
21.08.2019 22:00:00 19,6 15,3 17,6 23,2 21,9 4 2 7 4 NNW 1022,2 - 0 0,0
21.08.2019 21:00:00 23,3 15,6 21,4 23,2 21,9 2 1 7 4 NW 1021,3 - 37 0,0
21.08.2019 20:00:00 25,5 13,0 25,8 23,1 21,9 6 3 14 8 S 1020,7 - 60 0,0
21.08.2019 19:00:00 26,4 12,1 28,9 23,0 21,9 10 5 17 9 SE 1020,5 - 60 0,0
21.08.2019 18:00:00 26,7 12,7 29,7 22,8 21,9 12 6 27 15 ESE 1020,3 - 60 0,0
21.08.2019 17:00:00 26,7 12,4 29,9 22,6 21,9 11 6 22 12 SE 1020,6 - 60 0,0
21.08.2019 16:00:00 26,6 9,9 29,6 22,4 21,9 13 7 25 14 ESE 1021,0 22 60 0,0
21.08.2019 15:00:00 26,1 11,8 29,4 22,2 21,9 14 7 27 15 E 1021,5 23 60 0,0
21.08.2019 14:00:00 25,4 14,2 28,1 22,0 21,9 11 6 27 15 E 1021,9 20 60 0,0
21.08.2019 13:00:00 24,4 13,6 26,7 21,9 21,9 14 7 28 15 ENE 1022,5 20 56 0,0
21.08.2019 12:00:00 23,2 15,3 24,8 21,9 21,9 9 5 17 9 NE 1023,0 17 60 0,0
21.08.2019 11:00:00 20,4 14,7 20,0 21,9 21,9 7 4 19 11 E 1023,4 20 60 0,0
21.08.2019 10:00:00 17,4 13,7 17,4 22,0 21,9 5 3 12 7 ESE 1023,5 10 55 0,0
21.08.2019 09:00:00 14,8 13,2 13,2 22,1 21,9 4 2 8 4 NE 1023,4 16 23 0,0
21.08.2019 08:00:00 12,8 12,0 10,8 22,2 21,9 2 1 5 3 E 1023,4 7 20 0,0
21.08.2019 07:00:00 11,9 10,8 10,8 22,3 21,9 3 1 6 4 SSE 1023,3 13 0 0,0
21.08.2019 06:00:00 12,5 11,1 11,2 22,5 21,9 3 2 4 2 ENE 1023,4 14 0 0,0
21.08.2019 05:00:00 13,4 11,5 12,2 22,6 21,9 0 0 7 4 N 1023,8 13 0 0,0
21.08.2019 04:00:00 13,7 11,4 12,2 22,7 21,9 2 1 10 5 ESE 1023,9 13 0 0,0
21.08.2019 03:00:00 15,0 10,8 13,4 22,8 21,9 5 3 10 5 ENE 1024,2 21 0 0,0
21.08.2019 02:00:00 16,1 11,0 13,7 22,9 21,9 5 3 12 7 NE 1024,6 25 0 0,0
21.08.2019 01:00:00 15,5 12,3 13,7 23,0 21,9 0 0 7 4 N 1024,8 23 0 0,0
21.08.2019 00:00:00 16,9 11,6 15,6 23,1 21,9 3 2 11 6 N 1025,0 24 0 0,0
20.08.2019 23:00:00 17,4 12,7 16,2 23,2 21,9 5 3 9 5 N 1024,7 21 0 0,0
20.08.2019 22:00:00 18,3 13,6 17,0 23,2 21,9 5 3 9 5 NW 1024,8 23 0 0,0
20.08.2019 21:00:00 20,4 13,8 19,5 23,2 22,0 6 4 13 7 NNW 1024,4 27 36 0,0
20.08.2019 20:00:00 22,4 13,7 22,4 23,2 22,0 7 4 14 8 ENE 1024,0 24 60 0,0
20.08.2019 19:00:00 22,7 14,5 25,2 23,1 22,0 9 5 14 8 NNW 1024,0 19 47 0,0
20.08.2019 18:00:00 22,5 15,1 23,0 23,0 22,0 5 3 14 8 NNW 1024,0 16 3 0,0
20.08.2019 17:00:00 22,3 14,9 22,6 22,9 21,9 6 3 16 8 W 1024,4 17 0 0,0
20.08.2019 16:00:00 22,5 13,0 23,4 22,8 22,0 7 4 19 10 NNE 1024,4 17 8 0,0
20.08.2019 15:00:00 22,3 13,6 25,0 22,6 21,9 7 4 15 8 NNW 1024,1 10 20 0,0
20.08.2019 14:00:00 21,6 14,7 23,1 22,6 22,0 6 4 14 8 W 1024,3 10 39 0,0
20.08.2019 13:00:00 20,5 15,3 20,9 22,5 21,9 3 2 10 5 NW 1024,8 18 6 0,0
20.08.2019 12:00:00 19,1 15,8 19,2 22,5 22,0 4 2 10 5 SSW 1024,7 23 14 0,0
20.08.2019 11:00:00 17,7 15,1 17,1 22,6 22,0 2 1 8 4 SE 1024,1 14 1 0,0
20.08.2019 10:00:00 16,5 15,7 15,5 22,6 22,0 4 2 9 5 N 1023,5 10 0 0,0
20.08.2019 09:00:00 15,7 14,6 15,2 22,7 22,0 0 0 10 5 N 1023,3 12 0 0,4
20.08.2019 08:00:00 15,7 15,1 15,1 22,8 22,0 8 4 14 8 SSE 1022,3 6 0 0,4
20.08.2019 07:00:00 15,7 14,7 15,1 22,9 22,0 5 3 11 6 ESE 1022,0 2,5 0 0,0
20.08.2019 06:00:00 15,7 14,6 14,9 22,9 21,9 6 4 16 8 E 1021,2 2,9 0 0,2
20.08.2019 05:00:00 15,9 14,1 14,7 23,0 22,0 10 5 16 9 ENE 1021,3 10 0 0,4
20.08.2019 04:00:00 16,6 14,1 14,9 23,1 22,0 10 5 18 10 NE 1020,9 6 0 0,8
20.08.2019 03:00:00 17,6 12,7 17,3 23,1 22,0 5 3 16 9 NW 1021,2 18 0 0,0
20.08.2019 02:00:00 17,9 13,6 17,4 23,2 22,0 7 4 16 8 N 1021,1 21 0 0,0
20.08.2019 01:00:00 18,2 14,5 17,7 23,2 22,0 8 4 14 8 NNW 1021,7 25 0 0,0
20.08.2019 00:00:00 17,9 14,8 17,5 23,3 22,0 4 2 11 6 N 1021,6 20 0 0,0
19.08.2019 23:00:00 18,2 14,9 17,9 23,3 22,0 5 3 14 8 NW 1021,9 19 0 0,0
19.08.2019 22:00:00 18,3 15,2 18,1 23,4 22,0 8 4 13 7 NNW 1021,5 17 0 0,0
19.08.2019 21:00:00 19,0 14,9 18,6 23,4 22,0 6 3 11 6 NNW 1021,2 26 0 0,0
19.08.2019 20:00:00 19,5 13,9 19,1 23,4 22,0 6 3 10 5 N 1020,9 22 0 0,0
19.08.2019 19:00:00 19,2 14,9 19,0 23,5 22,0 4 2 16 9 E 1020,9 23 0 0,0
19.08.2019 18:00:00 19,7 14,3 19,6 23,4 21,9 13 7 26 14 ESE 1020,6 25 0 0,0
19.08.2019 17:00:00 21,5 13,4 21,8 23,4 22,0 10 5 16 8 E 1020,7 15 0 0,0
19.08.2019 16:00:00 21,9 12,7 23,3 23,3 22,0 7 4 18 10 NE 1020,9 15 0 0,0
19.08.2019 15:00:00 21,6 14,5 23,3 23,2 21,9 8 4 18 10 ESE 1020,9 15 0 0,0
19.08.2019 14:00:00 21,7 14,1 22,1 23,2 21,9 7 4 19 10 ENE 1020,8 15 0 0,0
19.08.2019 13:00:00 20,8 14,4 22,1 23,2 22,0 7 4 15 8 E 1020,8 15 0 0,0
19.08.2019 12:00:00 20,5 15,3 21,4 23,1 22,0 9 5 14 8 SE 1020,8 14 0 0,0
19.08.2019 11:00:00 19,7 15,1 20,8 23,1 22,0 9 5 14 8 ESE 1020,9 14 5 0,0
19.08.2019 10:00:00 19,4 16,4 18,8 23,2 22,0 6 4 11 6 SE 1020,5 17 41 0,0
19.08.2019 09:00:00 17,8 16,3 17,4 23,2 21,9 3 2 7 4 E 1020,3 19 0 0,0
19.08.2019 08:00:00 17,3 16,2 17,1 23,3 21,9 4 2 10 6 S 1020,3 16 0 0,0

tt = temperature
td = dewpoint
tt 5cm = temperature 5cm
tt -20cm = temperature -20cm
tt -100cm = temperature -100cm
ff = wind speed
fx = gusts
dd = wind direction
ppp = reduced air pressure
vv = visibility
sd = sunshine duration
rr = precipitation

Next stations